Tracking 27079 objects as of 24-Mar-2023
HD Live streaming from Space Station
objects crossing your sky now

STARLINK-1849

Track STARLINK-1849 now!
10-day predictions
STARLINK-1849 is classified as:


NORAD ID: 47137
Int'l Code: 2020-088R
Perigee: 553.2 km
Apogee: 555.5 km
Inclination: 53.1 °
Period: 95.6 minutes
Semi major axis: 6925 km
RCS: Unknown
Launch date: November 25, 2020
Source: United States (US)
Launch site: AIR FORCE EASTERN TEST RANGE (AFETR)
Your satellite tracking list
Your tracking list is empty




NASA's NSSDC Master Catalog

Two Line Element Set (TLE):
1 47137U 20088R   23082.80759744  .00021094  00000-0  14304-2 0  9999
2 47137  53.0517 108.3753 0001676  55.3233 304.7914 15.06410363129215
Source of the keplerian elements: AFSPC